Anoka County, MN

4:42 PM CDT on July 24, 2017 (GMT -0500)
Anoka County / Blaine Airport

Weather History for KANE - May, 2013

Change the Weather History Date:

Tuesday, May 28, 2013

  Actual Average Record
Temperature  
Mean Temperature 58 °F -  
Max Temperature 60 °F 67 °F 93 °F (2006)
Min Temperature 55 °F 47 °F 42 °F (2008)
Degree Days  
Heating Degree Days 8    
Growing Degree Days 8 (Base 50)    
Moisture  
Dew Point 54 °F    
Average Humidity 89    
Maximum Humidity 94    
Minimum Humidity 82    
Precipitation  
Precipitation 0.00 in - - ()
Sea Level Pressure  
Sea Level Pressure 29.77 in    
Wind  
Wind Speed 6 mph (East)    
Max Wind Speed 9 mph    
Max Gust Speed -    
Visibility 9 miles    
Events Rain    
Averages and records for this station are not official NWS values.
T = Trace of Precipitation, MM = Missing Value Source: NWS Daily Summary

Daily Weather History Graph

Daily Weather History Graph

Search for Another Location

Airport or City:

Trip Planner

Search our weather history database for the weather conditions in past years. The results will help you decide how hot, cold, wet, or windy it might be!

Date:

Astronomy

May. 28, 2013 Rise Set
Actual Time 5:31 AM CDT 8:49 PM CDT
Civil Twilight 4:55 AM CDT 9:25 PM CDT
Nautical Twilight 4:08 AM CDT 10:13 PM CDT
Astronomical Twilight 3:09 AM CDT 11:12 PM CDT
Moon No Moon Rise 9:24 AM CDT (5/28)
Length of Visible Light 16h 30m
Length of Day
15h 18m
Waning Gibbous, 82% of the Moon is Illuminated
May 28
Waning Gibbous
May 31
Last Quarter
Jun 8
New
Jun 16
First Quarter
Jun 23
Full

Hourly Weather History & Observations

Time (CDT) Temp. Dew Point Humidity Pressure Visibility Wind Dir Wind Speed Gust Speed Precip Events Conditions
12:13 AM 57.2 °F 53.6 °F 88% 29.84 in 10.0 mi East 9.2 mph - N/A   Overcast
12:34 AM 55.4 °F 53.6 °F 94% 29.84 in 10.0 mi East 5.8 mph - N/A   Overcast
12:54 AM 55.4 °F 53.6 °F 94% 29.84 in 10.0 mi ENE 5.8 mph - N/A   Overcast
1:14 AM 55.4 °F 53.6 °F 94% 29.83 in 10.0 mi East 8.1 mph - N/A   Overcast
1:34 AM 55.4 °F 53.6 °F 94% 29.81 in 10.0 mi East 5.8 mph - N/A   Overcast
1:54 AM 55.4 °F 53.6 °F 94% 29.81 in 10.0 mi East 6.9 mph - N/A   Overcast
2:13 AM 55.4 °F 51.8 °F 88% 29.80 in 10.0 mi East 8.1 mph - N/A   Overcast
2:34 AM 55.4 °F 51.8 °F 88% 29.78 in 10.0 mi East 6.9 mph - N/A   Overcast
2:53 AM 55.4 °F 51.8 °F 88% 29.79 in 10.0 mi East 3.5 mph - N/A   Overcast
3:14 AM 55.4 °F 51.8 °F 88% 29.80 in 10.0 mi East 5.8 mph - N/A   Overcast
3:34 AM 55.4 °F 51.8 °F 88% 29.79 in 10.0 mi East 6.9 mph - N/A   Overcast
3:54 AM 55.4 °F 51.8 °F 88% 29.78 in 10.0 mi East 6.9 mph - N/A   Overcast
4:14 AM 55.4 °F 51.8 °F 88% 29.77 in 10.0 mi ENE 9.2 mph - N/A   Overcast
4:34 AM 55.4 °F 51.8 °F 88% 29.77 in 10.0 mi East 6.9 mph - N/A   Overcast
4:54 AM 55.4 °F 51.8 °F 88% 29.77 in 10.0 mi East 6.9 mph - N/A   Overcast
5:14 AM 55.4 °F 51.8 °F 88% 29.77 in 10.0 mi East 5.8 mph - N/A   Overcast
5:34 AM 55.4 °F 51.8 °F 88% 29.78 in 10.0 mi ESE 5.8 mph - N/A   Overcast
5:54 AM 55.4 °F 51.8 °F 88% 29.77 in 10.0 mi East 4.6 mph - N/A   Overcast
6:14 AM 55.4 °F 51.8 °F 88% 29.77 in 10.0 mi East 4.6 mph - N/A   Overcast
6:34 AM 55.4 °F 53.6 °F 94% 29.76 in 10.0 mi ENE 5.8 mph - N/A   Overcast
6:45 AM 55.4 °F 53.6 °F 94% 29.75 in 10.0 mi ENE 5.8 mph - N/A   Overcast
6:54 AM 55.4 °F 53.6 °F 94% 29.75 in 10.0 mi ENE 5.8 mph - N/A   Overcast
7:45 AM 55.4 °F 53.6 °F 94% 29.74 in 10.0 mi East 8.1 mph - N/A   Overcast
8:45 AM 55.4 °F 53.6 °F 94% 29.74 in 7.0 mi East 8.1 mph - N/A   Overcast
9:45 AM 57.2 °F 53.6 °F 88% 29.74 in 7.0 mi East 8.1 mph - N/A   Overcast
10:45 AM 57.2 °F 53.6 °F 88% 29.73 in 7.0 mi East 8.1 mph - N/A   Overcast
11:45 AM 57.2 °F 55.4 °F 94% 29.73 in 7.0 mi East 6.9 mph - N/A   Overcast
12:45 PM 57.2 °F 55.4 °F 94% 29.75 in 8.0 mi ESE 4.6 mph - N/A   Overcast
1:45 PM 57.2 °F 55.4 °F 94% 29.74 in 5.0 mi NNE 3.5 mph - N/A Rain Light Rain
2:45 PM 60.8 °F 55.4 °F 82% 29.74 in 10.0 mi Calm Calm - N/A   Overcast
3:45 PM 60.8 °F 55.4 °F 82% 29.75 in 10.0 mi SE 3.5 mph - N/A   Overcast
5:50 PM 60.8 °F 55.4 °F 82% 29.75 in 10.0 mi Calm Calm - N/A   Overcast
6:45 PM 60.8 °F 55.4 °F 82% 29.74 in 10.0 mi Calm Calm - N/A   Overcast
8:45 PM 60.8 °F 57.2 °F 88% 29.74 in 7.0 mi Calm Calm - N/A   Overcast
9:13 PM 60.8 °F 57.2 °F 88% 29.74 in 7.0 mi Calm Calm - N/A   Overcast
9:34 PM 60.8 °F 55.4 °F 82% 29.73 in 7.0 mi Calm Calm - N/A   Overcast
9:50 PM 60.8 °F 57.2 °F 88% 29.74 in 7.0 mi Calm Calm - N/A   Overcast
9:54 PM 60.8 °F 57.2 °F 88% 29.74 in 7.0 mi Calm Calm - N/A   Overcast
10:13 PM 60.8 °F 57.2 °F 88% 29.75 in 7.0 mi Calm Calm - N/A   Overcast
10:34 PM 60.8 °F 57.2 °F 88% 29.77 in 7.0 mi Calm Calm - N/A   Overcast
10:54 PM 60.8 °F 57.2 °F 88% 29.78 in 7.0 mi Calm Calm - N/A   Overcast
11:13 PM 60.8 °F 57.2 °F 88% 29.78 in 7.0 mi Calm Calm - N/A   Overcast
11:34 PM 59.0 °F 57.2 °F 94% 29.79 in 5.0 mi South 3.5 mph - N/A   Overcast
11:54 PM 60.8 °F 55.4 °F 82% 29.80 in 5.0 mi SW 5.8 mph - N/A   Overcast